Language: 


Des rapports , des résumés tant et plus, au choix de chacun....


Données Historiques de Météogheer
Journalier Rapport pour Juillet 28, 2017 Unitée:  Impériale    Métrique   Les deux
Suivant Jour »
Journalier Hebdomadaire Mensuel Annuel Sur mesure
  Max: Min: Moyenne:
Température: 74.1 °F 56.3 °F 63.7 °F
Point de rosée: 60.8 °F 53.6 °F 57.4 °F
Humidité: 96% 50% 81%
Vent: 17.9mph 0mph 5.4mph
Rafales: 23.3mph - -
Vent- - WSW
Pression: 29.9 in 29.8 in -
Pluie: 0 in    
Historical Graphs
 
 
Données tabulaires pour Juillet 28, 2017
Heure Température Point de rosée Pression Vent Vent Rafales Humidité Pluie Taux (Horaire) Conditions
00:01 58.8 °F 53.6 °F 29.8 in WSW 6.7 mph 7.2 mph 83% 0 in
00:06 58.8 °F 55.4 °F 29.8 in WSW 4 mph 7.6 mph 84% 0 in
00:11 58.6 °F 53.6 °F 29.8 in WSW 4 mph 7.6 mph 84% 0 in
00:16 58.6 °F 55.4 °F 29.8 in SSW 4.9 mph 6.5 mph 85% 0 in
00:21 58.6 °F 53.6 °F 29.8 in West 4.9 mph 6.5 mph 84% 0 in
00:26 58.6 °F 55.4 °F 29.8 in WNW 5.8 mph 7.4 mph 85% 0 in
00:31 58.6 °F 55.4 °F 29.8 in SSW 5.4 mph 8.5 mph 86% 0 in
00:36 58.6 °F 55.4 °F 29.8 in Calm   8.5 mph 86% 0 in
00:41 58.5 °F 55.4 °F 29.8 in WSW 4.3 mph 6.5 mph 87% 0 in
00:46 58.5 °F 55.4 °F 29.8 in WSW 2.9 mph 6 mph 86% 0 in
00:51 58.3 °F 55.4 °F 29.8 in SSW 1.6 mph 6 mph 87% 0 in
00:56 58.1 °F 55.4 °F 29.8 in WSW 4 mph 6.3 mph 86% 0 in
01:02 57.9 °F 55.4 °F 29.8 in WSW 3.8 mph 6.5 mph 87% 0 in
01:07 57.9 °F 55.4 °F 29.8 in West 4 mph 6.5 mph 87% 0 in
01:12 57.9 °F 55.4 °F 29.8 in WSW 4.3 mph 6.3 mph 87% 0 in
01:17 57.7 °F 55.4 °F 29.8 in WSW 4.3 mph 6.3 mph 88% 0 in
01:18 57.7 °F 55.4 °F 29.8 in Calm   6.3 mph 88% 0 in
01:23 57.6 °F 55.4 °F 29.8 in WSW 3.4 mph 5.8 mph 88% 0 in
01:28 57.6 °F 55.4 °F 29.8 in WSW 4 mph 5.8 mph 88% 0 in
01:33 57.4 °F 55.4 °F 29.8 in WSW 4.3 mph 5.4 mph 89% 0 in
01:38 57.4 °F 55.4 °F 29.8 in Calm   5.4 mph 89% 0 in
01:43 57.2 °F 53.6 °F 29.8 in SSW 1.6 mph 4.5 mph 88% 0 in
01:48 57 °F 55.4 °F 29.8 in Calm   4.5 mph 89% 0 in
01:53 56.8 °F 53.6 °F 29.8 in Calm   5.4 mph 89% 0 in
01:58 56.8 °F 53.6 °F 29.8 in Calm   5.4 mph 90% 0 in
02:03 56.7 °F 53.6 °F 29.8 in WSW 1.6 mph 2.9 mph 90% 0 in
02:08 56.7 °F 53.6 °F 29.8 in Calm   4 mph 90% 0 in
02:13 56.7 °F 55.4 °F 29.8 in SSW 4 mph 6 mph 92% 0 in
02:18 56.8 °F 55.4 °F 29.8 in Calm   6 mph 92% 0 in
02:23 56.7 °F 55.4 °F 29.8 in WSW 3.8 mph 4.9 mph 92% 0 in
02:28 56.8 °F 55.4 °F 29.8 in SW 4.3 mph 7.6 mph 93% 0 in
02:33 57 °F 55.4 °F 29.8 in WSW 3.8 mph 7.6 mph 93% 0 in
02:38 57 °F 55.4 °F 29.8 in SSW 4.3 mph 7.6 mph 93% 0 in
02:44 57 °F 55.4 °F 29.8 in SW 6.3 mph 9.8 mph 93% 0 in
02:49 57 °F 55.4 °F 29.8 in Calm   9.8 mph 93% 0 in
02:54 56.8 °F 55.4 °F 29.8 in SSW 2.9 mph 6.3 mph 93% 0 in
02:59 56.7 °F 55.4 °F 29.8 in Calm   5.6 mph 93% 0 in
03:04 56.7 °F 55.4 °F 29.8 in Calm   4.3 mph 93% 0 in
03:09 56.5 °F 55.4 °F 29.8 in WSW 1.1 mph 4.9 mph 93% 0 in
03:14 56.5 °F 55.4 °F 29.8 in SSW 2.5 mph 4.9 mph 93% 0 in
03:19 56.3 °F 55.4 °F 29.8 in SSW 6.3 mph 6.7 mph 93% 0 in
03:24 56.5 °F 55.4 °F 29.8 in Calm   6.7 mph 94% 0 in
03:29 56.7 °F 55.4 °F 29.8 in West 3.8 mph 6.9 mph 94% 0 in
03:34 56.7 °F 55.4 °F 29.8 in SW 5.6 mph 6.9 mph 94% 0 in
03:39 56.8 °F 55.4 °F 29.8 in SW 6.3 mph 7.2 mph 95% 0 in
03:44 56.8 °F 55.4 °F 29.8 in South 4.9 mph 7.2 mph 95% 0 in
03:49 56.8 °F 55.4 °F 29.8 in Calm   7.2 mph 95% 0 in
03:54 56.8 °F 55.4 °F 29.8 in SW 4.3 mph 7.2 mph 95% 0 in
03:59 56.8 °F 55.4 °F 29.8 in West 3.4 mph 7.6 mph 95% 0 in
04:04 56.8 °F 55.4 °F 29.8 in SW 3.4 mph 7.6 mph 95% 0 in
04:09 56.8 °F 55.4 °F 29.8 in WSW 5.8 mph 6.3 mph 95% 0 in
04:14 56.8 °F 55.4 °F 29.8 in WSW 4 mph 6.3 mph 95% 0 in
04:20 56.8 °F 55.4 °F 29.8 in SW 3.6 mph 6 mph 94% 0 in
04:25 56.7 °F 55.4 °F 29.8 in West 0.9 mph 5.8 mph 95% 0 in
04:30 56.8 °F 55.4 °F 29.8 in SSW 4.3 mph 7.6 mph 95% 0 in
04:35 56.8 °F 55.4 °F 29.8 in WSW 5.4 mph 7.6 mph 95% 0 in
04:40 56.8 °F 55.4 °F 29.8 in WSW 3.8 mph 6 mph 95% 0 in
04:45 56.8 °F 55.4 °F 29.8 in SW 4.5 mph 6.5 mph 95% 0 in
04:50 56.8 °F 55.4 °F 29.8 in SW 4.3 mph 6.5 mph 95% 0 in
04:55 56.8 °F 55.4 °F 29.8 in SSW 4.9 mph 6.3 mph 95% 0 in
05:00 56.8 °F 55.4 °F 29.8 in WSW 5.8 mph 7.8 mph 95% 0 in
05:05 57 °F 55.4 °F 29.8 in West 5.8 mph 7.8 mph 95% 0 in
05:10 57 °F 55.4 °F 29.8 in West 4.3 mph 7.8 mph 95% 0 in
05:15 57 °F 55.4 °F 29.8 in WSW 8.1 mph 8.1 mph 95% 0 in
05:20 57.2 °F 55.4 °F 29.8 in WSW 4.9 mph 8.1 mph 95% 0 in
05:25 57.2 °F 55.4 °F 29.8 in SW 7.4 mph 8.7 mph 95% 0 in
05:30 57.4 °F 55.4 °F 29.8 in SW 6.3 mph 8.7 mph 95% 0 in
05:35 57.4 °F 55.4 °F 29.8 in SSW 5.4 mph 8.7 mph 95% 0 in
05:40 57.4 °F 55.4 °F 29.8 in SW 4 mph 8.5 mph 95% 0 in
05:45 57.4 °F 55.4 °F 29.8 in SW 4.5 mph 8.7 mph 95% 0 in
05:50 57.4 °F 55.4 °F 29.8 in SSW 7.6 mph 9.8 mph 95% 0 in
05:55 57.2 °F 55.4 °F 29.8 in SW 4.9 mph 9.8 mph 95% 0 in
06:00 57.2 °F 55.4 °F 29.8 in SW 6.9 mph 7.8 mph 95% 0 in
06:05 57.2 °F 55.4 °F 29.8 in SW 6.3 mph 8.5 mph 95% 0 in
06:10 57 °F 55.4 °F 29.8 in South 3.4 mph 8.5 mph 95% 0 in
06:15 57 °F 55.4 °F 29.8 in South 4 mph 8.1 mph 95% 0 in
06:20 56.8 °F 55.4 °F 29.8 in SSW 4.3 mph 7.2 mph 95% 0 in
06:25 56.8 °F 55.4 °F 29.8 in SSW 4 mph 7.4 mph 95% 0 in
06:30 56.8 °F 55.4 °F 29.8 in SW 6.7 mph 8.1 mph 96% 0 in
06:35 56.8 °F 55.4 °F 29.8 in SSW 4.3 mph 8.1 mph 96% 0 in
06:41 57 °F 57.2 °F 29.8 in Calm   6.5 mph 96% 0 in
06:46 57.2 °F 55.4 °F 29.8 in Calm   7.4 mph 95% 0 in
06:51 57.7 °F 57.2 °F 29.8 in SW 4.5 mph 7.4 mph 96% 0 in
06:56 58.1 °F 57.2 °F 29.8 in SW 4 mph 6.9 mph 96% 0 in
07:01 58.5 °F 57.2 °F 29.8 in SW 2.5 mph 6.9 mph 96% 0 in
07:06 58.5 °F 57.2 °F 29.8 in SW 6 mph 6.9 mph 95% 0 in
07:11 58.6 °F 57.2 °F 29.8 in SSW 3.6 mph 7.4 mph 95% 0 in
07:16 58.8 °F 57.2 °F 29.8 in Calm   7.4 mph 95% 0 in
07:21 58.8 °F 57.2 °F 29.8 in SSW 4.5 mph 6.5 mph 94% 0 in
07:26 59 °F 57.2 °F 29.9 in SW 2 mph 6.5 mph 94% 0 in
07:31 59.2 °F 57.2 °F 29.9 in Calm   6.5 mph 94% 0 in
07:36 59.4 °F 57.2 °F 29.9 in Calm   8.7 mph 93% 0 in
07:46 59.5 °F 57.2 °F 29.9 in Calm   7.8 mph 93% 0 in
07:51 59.7 °F 57.2 °F 29.9 in SW 7.6 mph 7.6 mph 93% 0 in
07:53 59.7 °F 57.2 °F 29.9 in SSW 4 mph 7.6 mph 93% 0 in
07:58 59.9 °F 59 °F 29.8 in SW 4.9 mph 7.6 mph 93% 0 in
08:03 60.3 °F 59 °F 29.8 in SW 6 mph 7.8 mph 93% 0 in
08:08 60.3 °F 57.2 °F 29.8 in SSW 5.4 mph 8.7 mph 92% 0 in
08:13 60.3 °F 57.2 °F 29.9 in SSW 4.9 mph 8.7 mph 92% 0 in
08:18 61.2 °F 59 °F 29.9 in WSW 5.4 mph 8.5 mph 92% 0 in
08:23 61.5 °F 59 °F 29.9 in WSW 5.4 mph 7.8 mph 92% 0 in
08:29 61.7 °F 59 °F 29.9 in SW 3.1 mph 11.4 mph 91% 0 in
08:34 61.7 °F 59 °F 29.9 in SW 5.4 mph 11.4 mph 90% 0 in
08:39 61.5 °F 59 °F 29.9 in WSW 4.7 mph 7.6 mph 90% 0 in
08:44 61.5 °F 59 °F 29.9 in SSW 4.7 mph 8.1 mph 90% 0 in
08:54 61.9 °F 59 °F 29.9 in WSW 3.6 mph 7.4 mph 90% 0 in
08:59 62.1 °F 59 °F 29.9 in SW 5.6 mph 8.1 mph 89% 0 in
09:04 62.2 °F 59 °F 29.9 in WSW 6.5 mph 10.1 mph 89% 0 in
09:09 62.2 °F 59 °F 29.9 in SW 6 mph 10.1 mph 88% 0 in
09:14 62.2 °F 59 °F 29.9 in SW 7.6 mph 10.1 mph 88% 0 in
09:19 62.4 °F 59 °F 29.9 in SSW 5.6 mph 10.1 mph 88% 0 in
09:24 62.4 °F 59 °F 29.9 in SW 7.8 mph 10.1 mph 87% 0 in
09:29 62.8 °F 59 °F 29.9 in SSW 7.4 mph 9.4 mph 87% 0 in
09:34 63.3 °F 59 °F 29.9 in WSW 7.4 mph 8.9 mph 86% 0 in
09:35 63.5 °F 59 °F 29.9 in SW 2.5 mph 8.9 mph 86% 0 in
09:40 63.5 °F 59 °F 29.8 in SW 5.6 mph 9.6 mph 85% 0 in
09:45 63.5 °F 59 °F 29.8 in West 7.2 mph 10.5 mph 85% 0 in
09:50 64.4 °F 59 °F 29.8 in SSW 9.6 mph 11 mph 84% 0 in
09:55 64.8 °F 59 °F 29.8 in SSW 5.4 mph 11 mph 83% 0 in
10:00 64.8 °F 59 °F 29.8 in WSW 3.8 mph 10.7 mph 82% 0 in
10:05 64.8 °F 59 °F 29.8 in SSW 9.8 mph 12.3 mph 81% 0 in
10:15 65.3 °F 59 °F 29.9 in WSW 7.4 mph 10.7 mph 80% 0 in
10:20 65.5 °F 59 °F 29.9 in West 5.4 mph 10.7 mph 80% 0 in
10:25 65.5 °F 59 °F 29.9 in WSW 6 mph 10.7 mph 79% 0 in
10:30 65.8 °F 59 °F 29.9 in WSW 8.5 mph 10.7 mph 79% 0 in
10:35 65.8 °F 59 °F 29.9 in WSW 7.8 mph 15.2 mph 78% 0 in
10:40 66 °F 59 °F 29.9 in West 9.8 mph 19.2 mph 78% 0 in
10:45 66.2 °F 59 °F 29.9 in SW 6.9 mph 19.2 mph 78% 0 in
10:51 66.2 °F 59 °F 29.9 in WSW 7.8 mph 12.5 mph 78% 0 in
10:56 66.6 °F 59 °F 29.8 in West 11.9 mph 17.7 mph 78% 0 in
11:02 66.9 °F 59 °F 29.8 in WSW 7.8 mph 17.7 mph 78% 0 in
11:07 67.3 °F 59 °F 29.8 in WSW 5.6 mph 15.4 mph 76% 0 in
11:12 67.8 °F 59 °F 29.9 in WSW 9.2 mph 19 mph 74% 0 in
11:17 68.4 °F 60.8 °F 29.9 in SSW 10.7 mph 19 mph 74% 0 in
11:22 68.9 °F 60.8 °F 29.9 in West 8.7 mph 13.4 mph 72% 0 in
11:27 70.2 °F 60.8 °F 29.9 in SSW 7.4 mph 13.2 mph 71% 0 in
11:32 71.6 °F 60.8 °F 29.9 in WSW 10.7 mph 13.2 mph 67% 0 in
11:35 71.6 °F 60.8 °F 29.9 in WSW 9.4 mph 13.2 mph 67% 0 in
11:40 71.1 °F 59 °F 29.9 in WSW 7.6 mph 13.2 mph 66% 0 in
11:45 70.9 °F 57.2 °F 29.9 in West 15.2 mph 15.2 mph 61% 0 in
11:50 71.1 °F 57.2 °F 29.9 in SW 6.5 mph 15.2 mph 63% 0 in
11:55 72 °F 60.8 °F 29.9 in SW 5.6 mph 13.2 mph 66% 0 in
12:00 73 °F 59 °F 29.9 in SW 8.5 mph 10.5 mph 62% 0 in
12:05 73.4 °F 59 °F 29.9 in WSW 15.4 mph 16.8 mph 60% 0 in
12:10 72.9 °F 57.2 °F 29.9 in WSW 10.5 mph 16.8 mph 59% 0 in
12:15 71.6 °F 57.2 °F 29.9 in SW 13 mph 13.2 mph 60% 0 in
12:20 71.2 °F 57.2 °F 29.9 in SSW 6.5 mph 13.2 mph 63% 0 in
12:26 70.7 °F 57.2 °F 29.9 in SSW 10.5 mph 13.9 mph 62% 0 in
12:31 70.5 °F 57.2 °F 29.9 in WSW 7.6 mph 14.3 mph 64% 0 in
12:36 69.1 °F 57.2 °F 29.9 in WSW 6.5 mph 14.3 mph 64% 0 in
12:41 67.8 °F 57.2 °F 29.9 in SSW 5.8 mph 13.2 mph 70% 0 in
12:46 68 °F 59 °F 29.9 in WSW 8.5 mph 13 mph 71% 0 in
12:51 68.5 °F 59 °F 29.9 in SW 6.5 mph 11 mph 71% 0 in
12:56 69.1 °F 59 °F 29.9 in West 4 mph 11 mph 71% 0 in
13:01 68.7 °F 57.2 °F 29.9 in WSW 7.6 mph 9.6 mph 68% 0 in
13:06 68.5 °F 57.2 °F 29.9 in WNW 8.5 mph 13 mph 68% 0 in
13:11 69.1 °F 59 °F 29.9 in West 11.9 mph 15.2 mph 68% 0 in
13:16 69.8 °F 59 °F 29.9 in SW 12.3 mph 15.2 mph 68% 0 in
13:21 70.9 °F 60.8 °F 29.9 in WSW 7.8 mph 13.2 mph 68% 0 in
13:26 71.2 °F 59 °F 29.9 in WSW 8.1 mph 15.2 mph 65% 0 in
13:31 70.3 °F 57.2 °F 29.9 in WSW 5.4 mph 15.2 mph 64% 0 in
13:36 71.2 °F 57.2 °F 29.9 in WSW 7.8 mph 17.4 mph 62% 0 in
13:41 72.1 °F 57.2 °F 29.9 in SW 12.5 mph 17.4 mph 60% 0 in
13:46 73 °F 59 °F 29.9 in SW 10.1 mph 15.2 mph 61% 0 in
13:51 74.1 °F 57.2 °F 29.9 in SW 12.8 mph 16.3 mph 54% 0 in
13:56 73.9 °F 55.4 °F 29.9 in WNW 10.7 mph 19.5 mph 52% 0 in
14:01 73.9 °F 55.4 °F 29.9 in WSW 12.8 mph 19.5 mph 51% 0 in
14:06 73.2 °F 55.4 °F 29.9 in WSW 8.5 mph 22.4 mph 52% 0 in
14:11 73.8 °F 55.4 °F 29.9 in West 6 mph 22.4 mph 52% 0 in
14:13 73.6 °F 55.4 °F 29.9 in WSW 7.6 mph 22.4 mph 51% 0 in
14:18 73.6 °F 55.4 °F 29.9 in SSW 10.1 mph 17.4 mph 52% 0 in
14:23 73.9 °F 55.4 °F 29.9 in WSW 10.7 mph 19.2 mph 50% 0 in
14:28 73.2 °F 55.4 °F 29.9 in WNW 16.6 mph 19.9 mph 51% 0 in
14:33 72.5 °F 55.4 °F 29.9 in WSW 17.4 mph 19.9 mph 52% 0 in
14:38 71.8 °F 55.4 °F 29.9 in West 8.1 mph 19 mph 55% 0 in
14:43 71.1 °F 53.6 °F 29.9 in South 10.3 mph 23 mph 53% 0 in
14:48 70.9 °F 55.4 °F 29.9 in WSW 10.1 mph 23 mph 56% 0 in
14:53 70.7 °F 55.4 °F 29.9 in West 11.9 mph 17.2 mph 57% 0 in
14:58 70.9 °F 55.4 °F 29.9 in WSW 8.1 mph 17.7 mph 59% 0 in
15:03 71.8 °F 57.2 °F 29.9 in WSW 12.8 mph 19.9 mph 59% 0 in
15:08 72.1 °F 55.4 °F 29.9 in West 17.9 mph 19.9 mph 57% 0 in
15:14 71.6 °F 55.4 °F 29.9 in West 13 mph 19 mph 56% 0 in
15:19 71.4 °F 55.4 °F 29.9 in West 14.1 mph 19.5 mph 58% 0 in
15:24 71.6 °F 55.4 °F 29.9 in West 8.1 mph 19.5 mph 58% 0 in
15:29 72.1 °F 55.4 °F 29.9 in WSW 13.2 mph 20.4 mph 57% 0 in
15:34 71.8 °F 55.4 °F 29.9 in WSW 10.5 mph 20.4 mph 56% 0 in
15:39 71.2 °F 55.4 °F 29.9 in WSW 12.1 mph 17.7 mph 56% 0 in
15:44 72 °F 55.4 °F 29.9 in WSW 13.2 mph 17.7 mph 57% 0 in
15:49 72.1 °F 55.4 °F 29.9 in WSW 8.9 mph 15.2 mph 57% 0 in
15:54 71.8 °F 55.4 °F 29.9 in WSW 8.5 mph 15.2 mph 57% 0 in
15:59 71.8 °F 55.4 °F 29.9 in West 13 mph 15.2 mph 57% 0 in
16:04 71.2 °F 55.4 °F 29.9 in WSW 14.8 mph 19 mph 57% 0 in
16:09 70.7 °F 55.4 °F 29.9 in West 14.5 mph 23.3 mph 56% 0 in
16:14 70.5 °F 55.4 °F 29.9 in WSW 13.2 mph 23.3 mph 57% 0 in
16:19 70.2 °F 55.4 °F 29.9 in West 15.4 mph 22.4 mph 57% 0 in
16:24 70.2 °F 55.4 °F 29.9 in WSW 13.6 mph 22.4 mph 57% 0 in
16:29 70 °F 55.4 °F 29.9 in West 9.6 mph 17.9 mph 59% 0 in
16:34 69.8 °F 55.4 °F 29.9 in West 10.1 mph 17.9 mph 59% 0 in
16:39 70 °F 55.4 °F 29.9 in SW 8.5 mph 15.7 mph 60% 0 in
16:45 70.3 °F 57.2 °F 29.9 in WSW 6.5 mph 15.7 mph 62% 0 in
16:50 70.2 °F 57.2 °F 29.9 in WSW 7.8 mph 10.3 mph 62% 0 in
16:55 69.8 °F 55.4 °F 29.9 in WSW 7.6 mph 10.3 mph 62% 0 in
17:00 69.1 °F 55.4 °F 29.9 in WSW 10.1 mph 10.3 mph 63% 0 in
17:05 68 °F 57.2 °F 29.9 in WSW 12.5 mph 15.4 mph 69% 0 in
17:10 67.5 °F 59 °F 29.9 in West 7.8 mph 15.4 mph 73% 0 in
17:15 67.3 °F 59 °F 29.9 in SW 4.3 mph 12.3 mph 75% 0 in
17:20 67.3 °F 60.8 °F 29.9 in West 3.1 mph 9.8 mph 77% 0 in
17:25 67.3 °F 60.8 °F 29.9 in SSW 7.2 mph 8.5 mph 77% 0 in
17:30 67.3 °F 60.8 °F 29.9 in WSW 5.6 mph 8.5 mph 77% 0 in
17:32 67.3 °F 60.8 °F 29.9 in SW 5.6 mph 8.5 mph 77% 0 in
17:37 66.9 °F 59 °F 29.9 in SSW 6 mph 7.6 mph 77% 0 in
17:42 66.7 °F 59 °F 29.9 in WSW 8.5 mph 9.4 mph 75% 0 in
17:47 66.7 °F 59 °F 29.9 in West 8.5 mph 13.2 mph 75% 0 in
17:52 65.8 °F 59 °F 29.9 in WSW 7.2 mph 13.2 mph 78% 0 in
17:57 65.7 °F 59 °F 29.9 in Calm   11 mph 80% 0 in
18:00 65.5 °F 59 °F 29.9 in WSW 5.4 mph 7.8 mph 80% 0 in
18:05 65.5 °F 59 °F 29.9 in West 6.3 mph 8.5 mph 80% 0 in
18:10 65.3 °F 59 °F 29.9 in WSW 2.9 mph 10.1 mph 79% 0 in
18:15 65.3 °F 59 °F 29.9 in WSW 8.7 mph 10.1 mph 78% 0 in
18:20 65.5 °F 59 °F 29.9 in WSW 7.4 mph 10.3 mph 77% 0 in
18:25 65.7 °F 57.2 °F 29.9 in West 12.5 mph 14.1 mph 74% 0 in
18:30 65.7 °F 57.2 °F 29.9 in WSW 7.8 mph 14.1 mph 74% 0 in
18:35 65.8 °F 57.2 °F 29.9 in WSW 9.8 mph 13.4 mph 75% 0 in
18:40 65.8 °F 57.2 °F 29.9 in WSW 8.7 mph 13.4 mph 75% 0 in
18:45 65.8 °F 57.2 °F 29.9 in WSW 8.9 mph 10.7 mph 76% 0 in
18:50 65.8 °F 57.2 °F 29.9 in SW 5.8 mph 10.7 mph 75% 0 in
19:00 65.8 °F 59 °F 29.9 in SW 4.9 mph 10.1 mph 77% 0 in
19:05 65.8 °F 59 °F 29.9 in WSW 3.1 mph 7.8 mph 77% 0 in
19:10 65.8 °F 57.2 °F 29.9 in WSW 7.4 mph 9.6 mph 76% 0 in
19:16 65.7 °F 59 °F 29.9 in WSW 5.6 mph 9.6 mph 78% 0 in
19:21 65.3 °F 59 °F 29.9 in WSW 5.6 mph 7.6 mph 80% 0 in
19:26 64.8 °F 59 °F 29.9 in Calm   7.6 mph 81% 0 in
19:31 64.6 °F 59 °F 29.9 in West 2.2 mph 6.5 mph 81% 0 in
19:36 64.4 °F 59 °F 29.9 in Calm   6 mph 82% 0 in
19:41 64.2 °F 59 °F 29.9 in Calm   3.4 mph 83% 0 in
19:46 64.2 °F 60.8 °F 29.9 in South 2.5 mph 2.5 mph 85% 0 in
19:51 64 °F 59 °F 29.9 in Calm   2.5 mph 85% 0 in
19:56 63.9 °F 59 °F 29.9 in SW 1.6 mph 2.7 mph 86% 0 in
20:01 63.7 °F 59 °F 29.9 in Calm   3.8 mph 86% 0 in
20:06 63.9 °F 59 °F 29.9 in Calm   4.7 mph 86% 0 in
20:11 63.9 °F 60.8 °F 29.9 in Calm   4.7 mph 87% 0 in
20:16 64 °F 60.8 °F 29.9 in Calm   5.4 mph 87% 0 in
20:21 64 °F 60.8 °F 29.9 in SW 3.6 mph 5.4 mph 87% 0 in
20:26 64 °F 60.8 °F 29.9 in Calm   4.7 mph 87% 0 in
20:31 64 °F 60.8 °F 29.9 in Calm   4.7 mph 87% 0 in
20:36 64 °F 60.8 °F 29.9 in Calm   4.7 mph 87% 0 in
20:41 64 °F 60.8 °F 29.9 in Calm   4.7 mph 87% 0 in
20:46 64 °F 60.8 °F 29.9 in Calm   3.8 mph 87% 0 in
20:52 64 °F 60.8 °F 29.9 in SSW 3.1 mph 3.8 mph 87% 0 in
20:57 63.9 °F 60.8 °F 29.9 in Calm   3.4 mph 87% 0 in
21:02 63.9 °F 60.8 °F 29.9 in Calm   3.4 mph 87% 0 in
21:07 63.7 °F 60.8 °F 29.9 in Calm   1.6 mph 87% 0 in
21:12 63.5 °F 60.8 °F 29.9 in Calm     87% 0 in
21:17 63.5 °F 60.8 °F 29.9 in Calm     88% 0 in
21:22 63.5 °F 60.8 °F 29.9 in Calm     88% 0 in
21:27 63.3 °F 59 °F 29.9 in Calm     88% 0 in
21:32 63.3 °F 59 °F 29.9 in SSW 0.9 mph 3.8 mph 88% 0 in
21:37 63.3 °F 59 °F 29.9 in WSW 3.8 mph 3.8 mph 88% 0 in
21:42 63.5 °F 60.8 °F 29.9 in SSW 3.1 mph 4.9 mph 88% 0 in
21:47 63.5 °F 60.8 °F 29.9 in Calm   6 mph 88% 0 in
21:52 63.5 °F 60.8 °F 29.9 in Calm   6 mph 88% 0 in
21:57 63.7 °F 60.8 °F 29.9 in SSW 2.7 mph 6.5 mph 89% 0 in
22:02 63.7 °F 60.8 °F 29.9 in SSW 4 mph 6.5 mph 89% 0 in
22:07 63.7 °F 60.8 °F 29.9 in SSW 1.6 mph 6.5 mph 88% 0 in
22:12 63.7 °F 60.8 °F 29.9 in Calm   6.5 mph 89% 0 in
22:17 63.5 °F 60.8 °F 29.9 in SW 3.6 mph 6.3 mph 88% 0 in
22:22 63.5 °F 60.8 °F 29.9 in SW 3.6 mph 6.3 mph 88% 0 in
22:27 63.5 °F 60.8 °F 29.9 in Calm   5.4 mph 88% 0 in
22:32 63.5 °F 60.8 °F 29.9 in SW 1.1 mph 5.4 mph 89% 0 in
22:37 63.7 °F 60.8 °F 29.9 in SW 6.3 mph 6.3 mph 89% 0 in
22:42 63.9 °F 60.8 °F 29.9 in SSW 6 mph 6.3 mph 88% 0 in
22:47 64.2 °F 60.8 °F 29.9 in South 4.3 mph 6.3 mph 87% 0 in
22:52 64.4 °F 60.8 °F 29.9 in SSW 2.7 mph 8.1 mph 85% 0 in
22:57 64.4 °F 59 °F 29.9 in SSW 2.2 mph 8.1 mph 84% 0 in
23:02 64.6 °F 59 °F 29.9 in Calm   5.6 mph 84% 0 in
23:07 64.6 °F 59 °F 29.9 in Calm   5.6 mph 83% 0 in
23:12 64.6 °F 59 °F 29.8 in Calm   4 mph 83% 0 in
23:17 64.6 °F 59 °F 29.8 in WSW 1.1 mph 4 mph 82% 0 in
23:22 64.4 °F 59 °F 29.8 in Calm   3.1 mph 82% 0 in
23:28 64.2 °F 59 °F 29.9 in Calm   3.6 mph 83% 0 in
23:33 63.9 °F 59 °F 29.9 in Calm   4.9 mph 83% 0 in
23:38 63.7 °F 59 °F 29.9 in Calm   4.9 mph 83% 0 in
23:43 63.5 °F 59 °F 29.9 in Calm   2.9 mph 83% 0 in
23:48 63.1 °F 57.2 °F 29.9 in Calm   3.4 mph 83% 0 in
23:53 63.1 °F 57.2 °F 29.9 in Calm   3.4 mph 83% 0 in
23:58 63 °F 57.2 °F 29.9 in Calm   1.1 mph 83% 0 in
Données Historique de Météo Turbie

Mise a jour : 18/06/2018 21:24:11
Généré par Cumulus 1.9.4 (1099)